Time,TemperatureF,DewpointF,PressureIn,WindDirection,WindDirectionDegrees,WindSpeedMPH,WindSpeedGustMPH,Humidity,HourlyPrecipIn,Conditions,Clouds,dailyrainin,SoftwareType,DateUTC
2013-03-14 00:08:00,53.4,46.0,30.18,NW,307,3.0,6.0,75,0.00,,,0.00,weatherlink.com 1.10,2013-03-14 04:08:00,
2013-03-14 00:23:00,52.9,46.0,30.17,NW,306,2.0,6.0,77,0.00,,,0.00,weatherlink.com 1.10,2013-03-14 04:23:00,
2013-03-14 00:38:00,52.7,46.0,30.18,NW,305,2.0,7.0,78,0.00,,,0.00,weatherlink.com 1.10,2013-03-14 04:38:00,
2013-03-14 00:53:00,52.2,46.0,30.18,NW,315,3.0,4.0,79,0.00,,,0.00,weatherlink.com 1.10,2013-03-14 04:53:00,
2013-03-14 01:08:00,51.9,46.0,30.17,NW,305,1.0,4.0,80,0.00,,,0.00,weatherlink.com 1.10,2013-03-14 05:08:00,
2013-03-14 01:38:00,50.9,46.0,30.17,WNW,290,1.0,3.0,83,0.00,,,0.00,weatherlink.com 1.10,2013-03-14 05:38:00,
2013-03-14 01:54:00,50.5,46.0,30.16,NW,315,0.0,2.0,85,0.00,,,0.00,weatherlink.com 1.10,2013-03-14 05:54:00,
2013-03-14 02:09:00,49.7,46.0,30.16,NW,315,0.0,0.0,86,0.00,,,0.00,weatherlink.com 1.10,2013-03-14 06:09:00,
2013-03-14 02:24:00,49.1,46.0,30.16,NW,315,0.0,0.0,89,0.00,,,0.00,weatherlink.com 1.10,2013-03-14 06:24:00,
2013-03-14 02:39:00,48.9,46.0,30.16,West,276,0.0,1.0,90,0.00,,,0.00,weatherlink.com 1.10,2013-03-14 06:39:00,
2013-03-14 02:54:00,49.1,46.0,30.16,WNW,290,0.0,0.0,90,0.00,,,0.00,weatherlink.com 1.10,2013-03-14 06:54:00,
2013-03-14 03:09:00,49.4,47.0,30.16,NNW,340,2.0,3.0,91,0.00,,,0.00,weatherlink.com 1.10,2013-03-14 07:09:00,
2013-03-14 03:24:00,52.0,47.0,30.16,WNW,302,6.0,12.0,83,0.00,,,0.00,weatherlink.com 1.10,2013-03-14 07:24:00,
2013-03-14 03:39:00,53.2,44.0,30.16,NNW,340,6.0,11.0,71,0.00,,,0.00,weatherlink.com 1.10,2013-03-14 07:39:00,
2013-03-14 03:54:00,53.4,42.0,30.16,NW,311,4.0,12.0,65,0.00,,,0.00,weatherlink.com 1.10,2013-03-14 07:54:00,
2013-03-14 04:09:00,52.8,41.0,30.16,NW,321,4.0,15.0,65,0.00,,,0.00,weatherlink.com 1.10,2013-03-14 08:09:00,
2013-03-14 04:24:00,52.2,41.0,30.17,NW,323,4.0,11.0,65,0.00,,,0.00,weatherlink.com 1.10,2013-03-14 08:24:00,
2013-03-14 04:40:00,51.7,40.0,30.17,NNW,338,5.0,11.0,64,0.00,,,0.00,weatherlink.com 1.10,2013-03-14 08:40:00,
2013-03-14 04:54:00,51.7,38.0,30.17,NW,318,5.0,12.0,60,0.00,,,0.00,weatherlink.com 1.10,2013-03-14 08:54:00,
2013-03-14 05:09:00,51.8,37.0,30.18,WNW,298,7.0,15.0,58,0.00,,,0.00,weatherlink.com 1.10,2013-03-14 09:09:00,
2013-03-14 05:24:00,51.5,37.0,30.18,North,359,6.0,11.0,57,0.00,,,0.00,weatherlink.com 1.10,2013-03-14 09:24:00,
2013-03-14 05:39:00,51.0,36.0,30.18,WNW,301,4.0,13.0,57,0.00,,,0.00,weatherlink.com 1.10,2013-03-14 09:39:00,
2013-03-14 05:54:00,50.5,36.0,30.19,NW,319,6.0,11.0,59,0.00,,,0.00,weatherlink.com 1.10,2013-03-14 09:54:00,
2013-03-14 06:09:00,50.2,36.0,30.20,North,354,4.0,11.0,59,0.00,,,0.00,weatherlink.com 1.10,2013-03-14 10:09:00,
2013-03-14 06:24:00,49.7,36.0,30.21,NW,323,2.0,10.0,59,0.00,,,0.00,weatherlink.com 1.10,2013-03-14 10:24:00,
2013-03-14 06:39:00,49.3,35.0,30.22,NW,314,5.0,10.0,59,0.00,,,0.00,weatherlink.com 1.10,2013-03-14 10:39:00,
2013-03-14 06:54:00,49.5,34.0,30.22,NW,315,8.0,13.0,56,0.00,,,0.00,weatherlink.com 1.10,2013-03-14 10:54:00,
2013-03-14 07:09:00,49.5,34.0,30.23,NNW,333,6.0,13.0,55,0.00,,,0.00,weatherlink.com 1.10,2013-03-14 11:09:00,
2013-03-14 07:24:00,48.7,34.0,30.23,NNW,337,3.0,13.0,58,0.00,,,0.00,weatherlink.com 1.10,2013-03-14 11:24:00,
2013-03-14 07:39:00,48.0,34.0,30.24,WNW,300,7.0,11.0,59,0.00,,,0.00,weatherlink.com 1.10,2013-03-14 11:39:00,
2013-03-14 07:54:00,47.9,34.0,30.25,NNW,345,5.0,10.0,58,0.00,,,0.00,weatherlink.com 1.10,2013-03-14 11:54:00,
2013-03-14 08:11:00,48.3,33.0,30.25,NW,318,4.0,9.0,56,0.00,,,0.00,weatherlink.com 1.10,2013-03-14 12:11:00,
2013-03-14 08:25:00,48.9,33.0,30.25,NW,309,4.0,11.0,54,0.00,,,0.00,weatherlink.com 1.10,2013-03-14 12:25:00,
2013-03-14 08:40:00,49.5,33.0,30.26,NW,315,7.0,9.0,53,0.00,,,0.00,weatherlink.com 1.10,2013-03-14 12:40:00,
2013-03-14 08:55:00,50.0,32.0,30.27,NW,318,8.0,13.0,51,0.00,,,0.00,weatherlink.com 1.10,2013-03-14 12:55:00,
2013-03-14 09:10:00,49.9,32.0,30.27,NW,314,8.0,12.0,51,0.00,,,0.00,weatherlink.com 1.10,2013-03-14 13:10:00,
2013-03-14 09:25:00,50.4,33.0,30.27,NW,326,6.0,13.0,51,0.00,,,0.00,weatherlink.com 1.10,2013-03-14 13:25:00,
2013-03-14 09:40:00,51.0,32.0,30.27,North,350,8.0,14.0,49,0.00,,,0.00,weatherlink.com 1.10,2013-03-14 13:40:00,
2013-03-14 09:55:00,51.4,32.0,30.27,North,9,4.0,13.0,47,0.00,,,0.00,weatherlink.com 1.10,2013-03-14 13:55:00,
2013-03-14 10:10:00,52.2,31.0,30.27,NNW,330,10.0,15.0,45,0.00,,,0.00,weatherlink.com 1.10,2013-03-14 14:10:00,
2013-03-14 10:25:00,53.5,31.0,30.27,NNE,15,6.0,13.0,42,0.00,,,0.00,weatherlink.com 1.10,2013-03-14 14:25:00,
2013-03-14 10:41:00,53.6,31.0,30.27,NNE,26,10.0,13.0,43,0.00,,,0.00,weatherlink.com 1.10,2013-03-14 14:41:00,
2013-03-14 10:55:00,55.1,32.0,30.27,NW,325,8.0,11.0,42,0.00,,,0.00,weatherlink.com 1.10,2013-03-14 14:55:00,
2013-03-14 11:10:00,55.8,33.0,30.27,NNW,329,7.0,12.0,42,0.00,,,0.00,weatherlink.com 1.10,2013-03-14 15:10:00,
2013-03-14 11:25:00,56.4,32.0,30.26,NW,316,7.0,10.0,40,0.00,,,0.00,weatherlink.com 1.10,2013-03-14 15:25:00,
2013-03-14 11:40:00,56.8,31.0,30.25,North,358,6.0,11.0,38,0.00,,,0.00,weatherlink.com 1.10,2013-03-14 15:40:00,
2013-03-14 11:55:00,57.9,32.0,30.25,NW,326,6.0,12.0,37,0.00,,,0.00,weatherlink.com 1.10,2013-03-14 15:55:00,
2013-03-14 12:10:00,58.9,32.0,30.25,NNE,18,6.0,12.0,37,0.00,,,0.00,weatherlink.com 1.10,2013-03-14 16:10:00,
2013-03-14 12:25:00,60.0,33.0,30.24,NW,307,6.0,12.0,37,0.00,,,0.00,weatherlink.com 1.10,2013-03-14 16:25:00,
2013-03-14 12:40:00,60.9,33.0,30.24,NW,309,6.0,16.0,35,0.00,,,0.00,weatherlink.com 1.10,2013-03-14 16:40:00,
2013-03-14 12:55:00,61.6,32.0,30.23,North,356,5.0,12.0,33,0.00,,,0.00,weatherlink.com 1.10,2013-03-14 16:55:00,
2013-03-14 13:10:00,62.2,31.0,30.23,North,356,7.0,14.0,31,0.00,,,0.00,weatherlink.com 1.10,2013-03-14 17:10:00,
2013-03-14 13:25:00,62.6,31.0,30.22,WNW,299,7.0,14.0,31,0.00,,,0.00,weatherlink.com 1.10,2013-03-14 17:25:00,
2013-03-14 13:40:00,63.7,32.0,30.22,WNW,295,10.0,13.0,30,0.00,,,0.00,weatherlink.com 1.10,2013-03-14 17:40:00,
2013-03-14 13:55:00,64.0,33.0,30.21,West,276,6.0,12.0,32,0.00,,,0.00,weatherlink.com 1.10,2013-03-14 17:55:00,
2013-03-14 14:10:00,64.8,32.0,30.20,NNE,16,9.0,12.0,29,0.00,,,0.00,weatherlink.com 1.10,2013-03-14 18:10:00,
2013-03-14 14:26:00,65.4,29.0,30.20,NNW,339,7.0,11.0,26,0.00,,,0.00,weatherlink.com 1.10,2013-03-14 18:26:00,
2013-03-14 14:41:00,66.1,29.0,30.19,NW,325,6.0,11.0,25,0.00,,,0.00,weatherlink.com 1.10,2013-03-14 18:41:00,
2013-03-14 14:56:00,67.1,31.0,30.19,NNE,32,5.0,10.0,26,0.00,,,0.00,weatherlink.com 1.10,2013-03-14 18:56:00,
2013-03-14 15:11:00,67.2,31.0,30.18,NNW,345,9.0,13.0,26,0.00,,,0.00,weatherlink.com 1.10,2013-03-14 19:11:00,
2013-03-14 15:41:00,67.6,30.0,30.18,NNW,339,7.0,11.0,25,0.00,,,0.00,weatherlink.com 1.10,2013-03-14 19:41:00,
2013-03-14 15:56:00,67.2,31.0,30.18,WNW,295,7.0,11.0,26,0.00,,,0.00,weatherlink.com 1.10,2013-03-14 19:56:00,
2013-03-14 16:26:00,67.7,31.0,30.17,NE,51,6.0,9.0,25,0.00,,,0.00,weatherlink.com 1.10,2013-03-14 20:26:00,
2013-03-14 16:56:00,67.8,31.0,30.16,NNE,32,4.0,10.0,25,0.00,,,0.00,weatherlink.com 1.10,2013-03-14 20:56:00,
2013-03-14 17:11:00,67.9,31.0,30.16,NNW,337,6.0,7.0,25,0.00,,,0.00,weatherlink.com 1.10,2013-03-14 21:11:00,
2013-03-14 17:26:00,68.1,30.0,30.16,East,79,6.0,8.0,24,0.00,,,0.00,weatherlink.com 1.10,2013-03-14 21:26:00,
2013-03-14 17:41:00,67.5,29.0,30.16,NE,43,4.0,8.0,24,0.00,,,0.00,weatherlink.com 1.10,2013-03-14 21:41:00,
2013-03-14 17:56:00,67.6,28.0,30.16,NNW,335,5.0,7.0,23,0.00,,,0.00,weatherlink.com 1.10,2013-03-14 21:56:00,
2013-03-14 18:11:00,66.8,29.0,30.16,NW,318,5.0,7.0,24,0.00,,,0.00,weatherlink.com 1.10,2013-03-14 22:11:00,
2013-03-14 18:26:00,66.2,29.0,30.16,North,354,4.0,9.0,25,0.00,,,0.00,weatherlink.com 1.10,2013-03-14 22:26:00,
2013-03-14 18:56:00,65.0,30.0,30.17,NE,47,3.0,6.0,27,0.00,,,0.00,weatherlink.com 1.10,2013-03-14 22:56:00,
2013-03-14 19:11:00,64.3,29.0,30.18,NE,50,1.0,5.0,27,0.00,,,0.00,weatherlink.com 1.10,2013-03-14 23:11:00,
2013-03-14 19:26:00,62.7,31.0,30.18,NE,44,0.0,1.0,30,0.00,,,0.00,weatherlink.com 1.10,2013-03-14 23:26:00,
2013-03-14 19:41:00,60.1,31.0,30.18,NE,44,0.0,0.0,33,0.00,,,0.00,weatherlink.com 1.10,2013-03-14 23:41:00,
2013-03-14 19:56:00,57.6,31.0,30.18,NE,44,0.0,0.0,37,0.00,,,0.00,weatherlink.com 1.10,2013-03-14 23:56:00,
2013-03-14 20:26:00,53.6,33.0,30.19,NE,44,0.0,0.0,46,0.00,,,0.00,weatherlink.com 1.10,2013-03-15 00:26:00,
2013-03-14 20:41:00,52.5,33.0,30.19,NE,44,0.0,0.0,48,0.00,,,0.00,weatherlink.com 1.10,2013-03-15 00:41:00,
2013-03-14 20:56:00,50.6,34.0,30.19,NE,44,0.0,0.0,53,0.00,,,0.00,weatherlink.com 1.10,2013-03-15 00:56:00,
2013-03-14 21:11:00,51.3,35.0,30.20,NE,44,0.0,0.0,54,0.00,,,0.00,weatherlink.com 1.10,2013-03-15 01:11:00,
2013-03-14 21:26:00,50.6,35.0,30.21,WNW,301,1.0,3.0,56,0.00,,,0.00,weatherlink.com 1.10,2013-03-15 01:26:00,
2013-03-14 21:41:00,52.7,37.0,30.21,WNW,301,2.0,3.0,55,0.00,,,0.00,weatherlink.com 1.10,2013-03-15 01:41:00,
2013-03-14 22:11:00,53.1,39.0,30.24,NNE,30,0.0,4.0,59,0.00,,,0.00,weatherlink.com 1.10,2013-03-15 02:11:00,
2013-03-14 22:26:00,51.6,39.0,30.25,NNE,30,0.0,1.0,63,0.00,,,0.00,weatherlink.com 1.10,2013-03-15 02:26:00,
2013-03-14 22:56:00,48.1,40.0,30.25,NNE,30,0.0,0.0,73,0.00,,,0.00,weatherlink.com 1.10,2013-03-15 02:56:00,
2013-03-14 23:11:00,46.4,40.0,30.26,NNE,30,0.0,0.0,77,0.00,,,0.00,weatherlink.com 1.10,2013-03-15 03:11:00,
2013-03-14 23:26:00,46.1,41.0,30.26,NNE,30,0.0,0.0,81,0.00,,,0.00,weatherlink.com 1.10,2013-03-15 03:26:00,
2013-03-14 23:41:00,46.0,41.0,30.26,NNE,30,0.0,0.0,82,0.00,,,0.00,weatherlink.com 1.10,2013-03-15 03:41:00,
2013-03-14 23:56:00,45.5,41.0,30.27,NNE,30,0.0,0.0,83,0.00,,,0.00,weatherlink.com 1.10,2013-03-15 03:56:00,